Location: Hauppauge
(40.8260°N, 73.2030°W)
Time: 14:31:34
(UTC-05:00)

Daily predictions for brighter satellites

Satellite Brightness Start Highest point End
(mag) Time Altitude Azimuth Time Altitude Azimuth Time Altitude Azimuth
CZ-2C R/B 4.1 17:18:09 10° NNE 17:22:44 47° E 17:27:13 10° S
METEOR-M 4.4 17:17:41 10° SE 17:22:46 47° ENE 17:27:54 10° N
Geosat 4.4 17:19:26 10° NNE 17:24:27 67° WNW 17:29:25 10° SW
SMAP 3.1 17:21:18 10° SSE 17:25:57 89° WSW 17:30:38 10° NNW
Meteor 2-1 Rocket 4.3 17:20:16 10° N 17:26:03 74° E 17:31:53 10° SSE
IRAS Rocket 4.2 17:21:42 10° SSE 17:27:12 79° ENE 17:32:47 10° NNW
Cosmos 2221 3.3 17:24:26 10° NNE 17:28:18 30° ENE 17:32:09 10° SE
Cosmos 1726 3.0 17:25:18 10° NNE 17:28:29 27° ENE 17:31:36 10° SE
Meteor 1-24 Rocket 4.2 17:24:03 10° SSW 17:29:38 69° W 17:35:30 10° N
COSMO-SKYMED 1 3.2 17:26:57 10° NNE 17:30:59 37° E 17:35:00 10° SSE
Cosmos 1867 4.2 17:27:37 10° SW 17:32:55 55° NW 17:38:18 10° NNE
Nadezhda 1 Rocket 4.2 17:27:11 10° S 17:33:22 78° W 17:39:42 10° N
ATLAS 2AS CENTAUR R/B 3.1 17:26:18 10° NNW 17:34:08 55° NE 17:41:21 10° SE
Cosmos 968 Rocket 4.3 17:32:48 10° N 17:37:13 28° ENE 17:41:35 10° ESE
USA 161 4.3 17:37:15 10° NW 17:37:56 11° WNW 17:38:36 10° W
Cosmos 2341 Rocket 4.0 17:34:00 10° N 17:40:11 60° E 17:46:23 10° SSE
Cosmos 1674 2.6 17:36:29 10° S 17:40:16 82° E 17:44:02 10° N
Lacrosse 4 Rocket 3.8 17:37:42 10° W 17:40:26 17° NW 17:43:11 10° N
SL-14 R/B 4.4 17:37:30 10° SE 17:40:47 24° E 17:44:02 10° NE
NOSS 2-1 (E) 3.2 17:40:41 10° SSW 17:44:21 74° ESE 17:48:21 10° NE
Landsat 4 4.1 17:40:56 10° NNE 17:44:30 41° E 17:48:02 10° S
CZ-4 R/B 4.3 17:42:59 10° SSE 17:47:04 72° ENE 17:51:11 10° N
Cosmos 2369 Rocket 2.2 17:42:43 10° NNW 17:48:20 62° ENE 17:53:57 10° SE
Cosmos 1842 Rocket 3.8 17:44:10 10° NNW 17:48:37 74° W 17:53:01 10° S
Meteor 2-10 4.1 17:45:59 10° N 17:50:51 48° ENE 17:55:45 10° SSE
IRS-1A Rocket 4.2 17:46:05 10° SSE 17:51:35 87° ENE 17:57:12 10° NNW
Cosmos 1315 Rocket 4.1 17:49:01 10° SE 17:51:59 21° E 17:53:25 17° ENE
Cosmos 2154 Rocket 4.5 17:54:17 10° NNW 18:00:32 66° W 18:06:47 10° S
SKYMED 3 4.5 17:56:41 10° NNE 18:01:04 81° ESE 18:05:23 10° S
Tiangong 1 0.4 17:59:02 10° W 18:01:30 69° NNW 18:02:19 36° ENE
Cosmos 1300 3.1 17:57:59 10° N 18:01:35 39° ENE 18:05:11 10° SSE
MONITOR-E 4.0 17:58:38 10° SSE 18:01:39 67° ENE 18:04:42 10° N
OAO 3 Rocket 4.4 17:57:51 10° SW 18:02:00 31° SSE 18:05:12 15° ESE
NOSS 3-3 (A) 4.0 17:57:02 10° SSW 18:03:03 90° SE 18:09:33 11° NE
Okean 3 Rocket 3.7 17:58:38 10° S 18:03:03 55° E 18:07:30 10° NNE
NOSS 3-3 (C) 4.0 17:57:08 10° SSW 18:03:09 89° SE 18:09:38 11° NE
Cosmos 1076 Rocket 3.6 18:00:22 10° S 18:04:36 54° E 18:08:53 10° NNE
Cosmos 2181 Rocket 4.0 18:00:30 10° S 18:06:56 81° E 18:13:25 10° N
ALOS 2.2 18:03:23 10° SSE 18:08:02 79° ENE 18:12:43 10° N
Cosmos 1354 Rocket 4.4 18:05:01 10° NNW 18:10:19 69° WSW 18:15:35 10° S
SPOT 3 Rocket 3.5 18:05:31 10° SSE 18:10:36 67° ENE 18:15:44 10° N
Cosmos 2084 3.4 18:07:25 10° NW 18:11:12 69° WSW 18:15:03 10° SSE
Cosmos 1626 3.6 18:08:15 10° SE 18:10:06 20° ESE 18:10:06 20° ESE
Meteor 1-21 Rocket 4.4 18:05:41 10° S 18:11:33 86° W 18:17:31 10° N
Cosmos 1766 Rocket 4.1 18:08:11 10° SSE 18:12:08 35° E 18:14:21 21° NE
Cosmos 1943 Rocket 2.1 18:09:36 10° NNW 18:15:13 67° ENE 18:20:44 10° SSE
Cosmos 1656 Rocket 4.4 18:11:33 10° N 18:16:18 30° ENE 18:17:56 25° E
MOS 1 4.3 18:12:00 10° SSE 18:17:40 85° WSW 18:23:20 10° NNW
GEOS 3 Rocket 3.8 18:12:41 10° SE 18:17:50 54° NE 18:23:04 10° NNW
FengYun 1-2 T 4.5 18:12:31 10° SE 18:17:52 46° ENE 18:23:12 10° N
MTI 4.2 18:14:54 10° N 18:18:05 61° WNW 18:21:13 10° SSW
SKYMED 2 4.0 18:14:48 10° N 18:19:06 63° WNW 18:23:23 10° SSW
ERS-2 2.0 18:20:32 10° SSE 18:24:12 74° ENE 18:27:53 10° N
Cosmos 1400 Rocket 3.1 18:22:06 10° SSW 18:26:05 68° W 18:30:10 10° N
Cosmos 1328 3.8 18:23:09 10° S 18:27:04 55° E 18:28:46 30° NNE
YAOGAN 1 4.3 18:25:20 10° SSW 18:29:18 35° W 18:33:17 10° NNW
Cosmos 2218 Rocket 3.9 18:27:02 10° N 18:33:15 83° E 18:39:23 10° S
H-2A R/B 2.6 18:30:43 10° SSE 18:34:26 67° ENE 18:38:15 10° N
SL-8 Rocket 4.1 18:30:09 10° N 18:36:21 78° W 18:42:31 10° S
NOAA 12 4.4 18:31:27 10° S 18:36:39 66° WSW 18:41:52 10° NNW
BREEZE-M R/B 4.4 18:32:16 10° WSW 18:36:57 69° NNW 18:47:13 23° ENE
FENGYUN 3A 4.2 18:31:44 10° S 18:37:00 60° W 18:42:19 10° NNW
Cosmos 1777 Rocket 4.3 18:38:06 10° N 18:42:59 43° ENE 18:42:59 43° ENE
SL-08 R/B 4.4 18:41:57 10° N 18:48:13 88° E 18:54:21 10° S
Cosmos 2098 Rocket 3.6 18:44:07 10° N 18:48:49 53° E 18:54:42 10° SSE
Cosmos 1943 4.3 18:46:06 10° SW 18:51:23 41° WNW 18:56:34 11° N
Cosmos 44 3.8 18:56:48 10° SSW 18:59:40 38° S 18:59:40 38° S
Cosmos 1408 Rocket 3.9 19:03:41 10° SSW 19:07:56 60° W 19:08:58 45° NNW
Cosmos 44 Rocket 4.2 19:08:37 10° SSW 19:11:26 35° S 19:11:26 35° S
ATLAS 2AS CENTAUR R/B 4.3 19:17:55 10° NW 19:24:48 35° WSW 19:31:12 10° S
Nadezhda 3 Rocket 4.0 19:24:17 10° S 19:30:35 82° W 19:32:36 47° N
Thor Agena Rocket 4.1 19:34:00 55° NW 19:34:33 58° WNW 19:39:40 10° SSW
NOSS 3-4 (A) 3.8 19:40:34 10° NW 19:47:39 80° WSW 19:47:55 79° SSW
NOSS 3-4 (C) 3.8 19:40:39 10° NW 19:47:45 81° WSW 19:47:57 80° SW
